Wind_Speed
11 12 11 10 11 10 9 11 13 16 17 17 17 18 18 19 19 20 18 17 20 21 20 21 22 22 23 22 22 21 22 23 23 22 21 20 20 19 20 23 20 18 19
16 14 12 11 12 11 10 12 12 13 14 16 15 15 15 17 18 19 17 17 16 20 20 20 21 21 21 21 21 22 22 21 21 19 19 20 20 20 20 19 19 17 17
16 15 13 13 13 14 12 12 12 13 15 12 12 13 15 17 18 19 17 16 19 19 19 19 19 20 20 20 19 18 18 18 18 18 18 17 17 18 17 17 18 20 19
16 15 13 12 13 15 14 16 17 16 15 14 14 16 16 18 19 18 17 16 18 18 18 18 19 19 19 18 17 17 17 15 14 16 15 15 16 17 17 17 15 16 16
16 15 14 14 16 16 14 15 15 18 17 17 17 17 18 18 18 17 17 15 18 17 17 17 17 18 19 19 18 16 14 14 16 15 15 14 14 15 16 15 15 14 15
16 15 16 15 17 16 15 15 14 15 18 18 17 17 17 17 17 17 16 16 16 18 16 16 16 17 18 18 17 17 17 18 15 15 15 16 16 15 15 16 15 15 14
15 16 15 15 16 16 16 18 15 15 17 19 17 17 18 17 16 15 16 15 16 15 16 15 15 15 16 16 17 18 17 17 14 15 16 16 16 16 15 15 14 14 13
15 15 15 14 16 16 15 16 17 15 17 20 17 17 15 14 15 15 15 14 14 14 14 14 14 15 14 15 15 16 16 18 15 16 16 16 16 15 15 14 13 12 11
14 15 15 13 15 15 11 12 15 14 17 17 16 17 15 15 15 13 14 14 13 12 12 12 13 14 13 12 13 13 14 16 13 13 13 12 14 13 13 13 12 11 10
14 15 15 13 13 12 11 11 12 14 14 16 15 15 14 14 14 12 13 12 12 11 11 11 11 11 12 11 12 12 12 14 11 10 10 10 11 11 10 11 13 15 16
14 16 14 13 12 12 12 12 12 12 13 13 13 12 13 11 11 10 11 10 10 9 9 9 9 9 9 10 10 10 11 8 8 8 8 11 10 9 9 10 12 13 13
15 17 15 14 13 13 11 11 9 11 9 9 10 9 8 9 8 9 9 8 7 7 8 8 8 8 8 6 6 8 7 7 7 8 7 10 10 10 10 10 11 12 13
17 18 19 16 14 13 12 11 8 8 9 9 9 8 8 8 7 6 6 6 5 6 5 4 5 5 6 5 5 6 6 7 7 7 8 11 10 10 10 12 12 13 15
20 19 23 20 16 14 13 12 11 9 9 8 9 9 7 6 7 6 5 6 6 5 5 4 4 5 5 5 6 5 6 6 6 6 7 11 11 11 12 13 13 13 13
19 18 21 24 22 14 13 13 13 12 12 10 10 9 6 5 5 5 5 4 4 4 3 3 3 3 3 4 5 6 6 6 6 6 6 10 10 11 12 13 15 15 15
19 18 19 21 20 19 14 11 11 11 11 10 9 8 9 6 5 5 5 4 3 3 3 2 1 1 2 4 5 6 7 7 6 6 6 7 11 12 12 13 15 16 17
21 20 20 20 18 18 18 17 11 10 12 11 10 10 11 9 7 5 5 4 4 4 3 1 1 2 3 5 5 6 7 7 6 6 6 6 7 11 13 14 16 18 17
19 21 21 21 20 18 15 14 13 13 12 11 10 10 11 9 6 6 5 5 6 5 3 2 2 3 3 4 5 6 6 5 4 6 6 7 8 9 11 16 15 16 18
22 21 22 22 22 21 18 15 14 13 13 11 11 11 11 11 9 7 7 7 7 7 6 5 5 6 4 4 6 7 4 3 5 6 7 8 10 13 11 13 16 18 20
22 21 22 22 21 22 17 16 14 14 14 14 14 14 14 14 11 11 7 7 9 9 8 8 7 6 5 4 7 7 3 5 5 6 6 8 10 13 12 13 12 13 17
23 23 24 24 24 22 21 18 17 18 18 17 17 19 18 15 15 14 11 10 10 11 10 9 8 6 5 4 6 4 1 3 5 5 6 8 11 13 13 13 13 12 12
25 26 26 25 24 25 23 23 18 19 19 19 21 23 21 19 19 18 18 17 16 14 13 13 9 7 6 2 1 3 2 3 3 4 6 7 13 11 11 13 13 14 12
30 29 29 29 27 26 25 21 18 14 13 17 23 23 22 22 21 22 20 20 19 18 19 15 13 11 7 4 2 1 3 1 3 1 3 5 12 10 9 10 11 14 15
30 28 30 30 30 29 28 25 25 23 21 21 24 26 23 24 21 23 21 20 20 19 18 16 13 13 11 7 4 3 1 1 2 2 3 3 9 9 9 8 8 13 16
28 30 31 30 30 30 30 30 27 26 24 20 19 24 30 28 23 23 21 20 20 20 17 14 14 13 13 9 6 5 3 1 2 2 1 3 5 6 6 7 8 12 17
26 29 29 30 31 30 29 30 30 29 26 24 21 22 29 31 27 26 25 24 21 19 17 16 14 12 12 9 8 8 8 5 7 4 4 2 4 3 4 5 7 13 20
Wind_Direction
151 154 148 149 132 134 125 125 119 112 109 107 99 95 92 98 97 91 85 88 85 81 79 77 75 74 73 72 72 74 77 78 74 71 70 66 61 57 57 61 59 58 54
147 149 148 144 137 132 119 116 129 122 107 105 105 96 87 95 102 99 97 91 87 85 83 80 79 76 74 74 75 78 82 82 79 75 66 59 60 60 57 61 59 58 60
146 148 145 147 142 130 115 116 115 124 117 110 103 101 92 91 96 101 98 87 91 92 87 83 79 77 76 76 76 79 81 80 79 72 67 62 57 56 54 54 53 58 58
147 147 143 143 133 127 121 111 108 105 110 112 111 107 101 99 103 106 102 94 94 95 89 84 79 77 75 74 76 78 78 81 83 70 64 62 58 53 51 50 52 53 51
148 146 145 138 128 129 136 131 118 120 119 110 111 108 105 102 106 108 102 98 91 96 90 87 82 79 73 74 73 72 70 72 68 64 61 58 52 49 49 50 50 52 49
150 146 146 143 140 143 142 139 124 125 126 116 113 112 108 108 107 110 108 103 99 96 94 88 83 79 76 76 70 68 74 77 69 65 62 56 56 52 51 51 51 49 49
153 149 145 149 142 144 142 141 127 119 122 121 121 113 107 106 107 112 115 107 98 93 91 87 85 84 81 79 73 70 69 74 68 68 64 61 56 55 52 49 48 49 49
157 151 144 149 143 142 155 140 136 125 125 129 122 116 117 118 113 110 116 111 104 94 92 90 88 86 82 78 72 69 67 70 63 62 61 57 53 49 48 47 45 43 37
160 154 144 148 150 148 155 154 142 130 122 124 130 126 130 111 113 113 110 107 103 100 93 91 91 86 83 80 76 72 69 73 65 64 61 56 50 44 43 41 39 35 28
159 158 150 150 147 147 149 157 154 142 134 132 127 125 117 115 122 122 108 109 103 98 92 91 92 88 80 76 75 70 69 58 60 59 56 52 51 35 29 27 25 21 16
165 162 160 154 149 149 147 154 153 153 144 136 136 133 118 118 114 109 125 117 114 108 101 93 88 89 81 74 72 69 64 55 53 50 44 35 35 18 11 5 360 356 350
172 166 172 163 157 153 153 150 151 149 143 140 142 138 128 123 129 122 120 121 120 118 113 98 87 85 74 67 53 45 43 41 39 36 27 21 17 9 0 355 351 346 341
177 172 180 172 168 162 162 160 162 161 153 153 153 150 144 133 126 117 117 112 102 112 115 102 78 75 74 68 48 41 31 28 25 20 4 9 6 1 356 351 345 344 345
181 181 182 186 179 176 170 172 173 169 166 163 168 165 157 150 149 145 139 131 118 116 118 98 79 79 66 57 48 32 22 17 7 3 355 2 357 1 5 6 6 2 360
189 188 187 190 190 185 184 181 178 178 177 176 173 176 164 158 155 151 140 133 126 120 116 105 95 73 49 34 23 12 5 2 359 359 3 1 21 25 29 30 26 19 12
191 195 192 195 194 195 197 191 189 182 184 180 181 183 185 177 172 162 157 152 153 144 133 127 97 33 14 8 355 354 355 351 352 2 8 32 36 38 33 28 24 21 18
196 191 195 194 198 202 204 199 197 195 191 194 194 197 195 189 189 182 184 185 180 163 147 135 17 1 347 343 342 348 350 351 1 18 51 47 41 36 31 25 22 31 29
195 195 194 195 198 205 211 204 203 203 203 203 204 204 205 200 198 198 201 202 201 196 192 207 276 300 316 330 331 340 340 358 10 70 57 59 47 42 22 26 23 24 34
195 196 196 200 202 205 205 205 206 209 211 212 211 209 211 205 212 220 230 222 214 208 213 248 281 290 300 323 332 328 333 1 96 51 73 51 55 40 30 14 26 32 45
200 200 200 202 206 206 204 206 209 211 212 214 215 216 208 211 210 214 220 232 231 227 230 240 255 280 287 307 318 327 358 116 83 70 61 58 44 24 33 33 37 28 41
203 203 204 203 206 202 202 201 209 212 211 213 215 223 217 217 222 218 222 238 252 237 242 248 249 259 282 305 328 317 84 108 68 71 71 54 36 28 32 38 38 41 30
209 208 208 208 206 206 206 206 207 211 218 216 221 223 221 226 228 227 229 229 233 241 246 245 243 250 247 268 276 302 260 157 172 86 95 56 23 30 39 42 48 43 34
216 212 210 210 210 211 211 210 211 209 213 210 223 228 224 230 229 230 230 236 240 243 246 244 241 232 227 238 182 275 249 231 320 155 99 70 21 31 45 50 56 38 26
217 216 217 213 213 214 212 210 207 209 213 220 221 221 223 225 230 229 236 238 242 244 245 240 231 232 220 199 180 210 238 269 261 185 161 55 32 45 41 39 51 28 19
214 217 217 217 216 215 214 213 212 216 219 225 222 220 217 218 223 229 234 235 237 244 238 233 227 224 215 198 198 176 210 276 273 258 261 345 22 37 45 40 42 22 11
217 218 218 218 220 218 216 217 216 218 218 218 216 213 217 211 216 221 227 230 234 231 223 220 217 215 214 209 198 191 188 187 189 181 224 275 319 348 32 33 34 15 1
Height
862 862 862 863 864 865 865 865 864 864 864 864 865 865 865 865 865 865 865 865 864 865 864 864 863 863 862 861 861 860 859 859 859 859 859 859 858 858 857 856 856 855 854
861 863 865 866 866 866 867 866 866 866 866 866 867 867 867 867 867 868 868 868 867 868 867 867 867 866 865 864 864 863 863 862 862 862 862 861 861 861 860 859 858 858 857
862 865 867 867 868 868 869 868 868 868 869 869 869 870 870 870 871 871 871 871 871 871 871 871 870 869 868 867 867 866 866 866 866 866 865 865 865 864 863 862 861 860 859
863 865 867 868 868 869 870 870 870 870 871 872 872 872 872 872 873 874 874 874 874 874 874 874 873 872 871 871 870 869 869 869 868 868 868 868 868 867 866 864 863 862 862
865 867 868 869 870 871 872 873 872 873 874 874 874 874 875 875 877 876 877 877 877 877 877 877 876 875 874 873 873 873 872 872 871 872 871 871 871 870 869 867 866 865 863
867 868 869 870 871 872 874 874 874 874 875 876 876 876 876 878 879 879 879 879 879 879 879 880 879 878 877 876 876 875 874 873 874 874 874 874 873 873 872 870 869 868 867
868 869 870 872 873 874 876 875 875 876 876 877 878 878 878 880 881 881 882 882 882 882 882 881 881 880 880 879 878 877 877 876 876 876 876 876 876 875 874 873 871 870 869
869 871 872 874 875 876 878 878 877 877 878 879 880 880 881 882 883 884 884 884 884 885 884 883 883 883 883 882 881 880 879 879 880 880 880 880 879 878 876 875 873 872 871
870 871 873 876 877 879 880 881 881 881 880 882 882 883 884 885 886 887 887 886 886 886 886 886 886 885 884 884 883 882 882 881 881 881 881 881 880 879 877 875 874 873 871
870 872 873 876 878 880 881 882 883 883 884 883 884 884 886 887 887 888 888 888 888 888 888 888 888 887 887 886 885 885 884 883 883 883 882 881 880 879 878 876 874 873 872
869 871 874 876 878 881 882 883 884 885 885 886 886 887 887 889 890 891 889 889 889 889 890 890 890 889 889 888 887 886 885 886 885 885 884 883 881 880 879 878 876 874 872
867 870 874 876 878 880 882 884 886 886 887 887 888 888 890 891 891 891 891 891 891 891 891 891 891 890 890 890 890 889 889 888 888 887 886 883 882 881 880 879 877 875 873
866 869 872 874 877 879 881 883 885 886 887 887 888 889 890 891 892 893 893 893 893 892 893 893 893 892 891 891 891 890 890 890 889 888 886 884 882 880 879 878 876 874 873
864 867 870 873 875 878 880 882 884 886 887 888 889 890 891 891 892 892 893 893 893 893 894 894 894 893 892 891 891 890 889 889 888 887 886 884 882 880 879 878 876 874 872
864 865 868 871 874 878 879 880 881 884 885 887 889 889 891 892 893 893 894 894 894 894 894 894 894 893 893 892 891 890 889 889 887 887 886 883 882 880 879 878 876 875 873
862 864 866 870 873 875 877 880 882 883 885 886 887 888 889 891 892 893 893 894 895 895 894 894 894 894 893 892 892 890 889 889 887 886 886 886 883 881 880 878 876 874 873
858 862 865 869 871 874 876 878 881 882 883 885 886 887 888 889 891 892 893 893 893 893 894 894 894 893 893 892 891 890 890 888 887 886 885 885 884 881 879 878 876 874 872
856 858 862 865 868 872 875 877 879 880 882 884 885 886 887 888 890 891 892 892 892 892 892 893 893 893 892 892 891 890 889 888 886 885 885 885 884 883 881 879 877 875 874
850 854 858 862 864 867 871 875 877 878 881 883 884 885 886 887 888 890 890 891 890 890 890 891 891 891 891 891 891 890 888 887 887 887 886 886 885 884 883 881 879 877 876
846 850 854 858 861 863 867 871 873 875 876 879 881 882 883 885 886 888 889 889 889 889 889 889 889 889 890 890 890 889 888 887 888 888 888 888 887 884 882 882 881 881 877
841 845 848 852 855 859 862 865 868 869 870 873 875 877 879 881 883 885 887 888 888 888 888 888 888 887 887 888 889 888 888 888 889 888 888 887 888 886 884 882 881 880 879
837 839 843 847 849 853 856 858 861 863 866 867 868 871 874 876 878 880 882 883 884 885 885 885 886 886 885 886 887 887 885 887 887 887 888 887 886 885 884 882 881 880 878
830 832 835 839 843 846 850 854 857 859 861 862 863 865 868 871 873 874 876 878 879 880 880 881 882 883 883 884 885 886 884 882 886 887 887 887 887 886 886 884 881 880 878
820 826 829 831 834 838 842 846 849 850 853 855 856 859 862 866 868 871 872 873 875 875 876 877 878 879 880 881 883 884 884 885 883 883 887 887 885 885 885 885 881 879 877
814 816 820 824 827 830 834 837 841 845 847 851 852 853 855 858 862 864 867 868 869 871 873 874 876 876 877 879 881 882 884 884 884 883 882 883 885 885 884 884 883 880 877
806 808 812 817 819 824 828 831 832 836 841 843 846 846 847 851 854 857 860 862 864 866 868 871 873 874 875 877 879 880 881 882 882 883 885 885 884 884 884 884 882 879 877